Find Leasat 2

NORAD ID: 15236 Int'l Des: 1984-093 Owner: HCI Country: US operational
HEOCIRCULAR

Aktuelle Ansicht

3D-Globus wird geladen...

Über Leasat 2

Beschreibung wird geladen...

Nächste Überflüge

Passes for default location (London). Set your location on the main map for personalized predictions.

Höhenverlauf

Loading altitude history...

Zweizeiliger Elementsatz

1 15236U 84093C 26150.81467316 -.00000141 00000-0 00000+0 0 9997
2 15236 10.8281 312.2938 0029927 283.8629 78.2627 0.97456478127893
Epoch: 30. Mai 2026 • Age: 12 hours

Aktueller Status

Höhe 36642.9 km
Geschwindigkeit 3.04 km/s
Subsatellitenpunkt 1.55°N, 127.71°E
Startdatum 30. Aug. 1984
Alter 41.7 years
Typ other

Technische Details

Klassifizierung Payload
Masse 3231.00 kg
Trockenmasse 1230.00 kg
Gesamtmasse 3231.00 kg
Länge 4.00 m
Durchmesser 4.30 m
Spannweite 6.20 m
Form Cyl + Ant
Hersteller HSES
Bus-Typ HS-381
Phasenstatus In Orbit
Besitzer/Staat HCI/US

Most Searched